Вернуться в каталог

TITAN 3C TRANSTAGE DEB

АктивенMEO
NORAD 43282·DEBRIS·🇺🇸 United States

Запущен Feb 9, 1969 с Cape Canaveral Space Force Station

Loading…

Ближайшие Пролёты (ближайшие 24 часа)

TLE

СвежийSource: Space-Track

Эпоха: Sep 14, 2026, 06:59 UTC

1 43282U 69013C   26257.29118860 -.00000201  00000-0  00000-0 0  9999
2 43282   2.4013  61.0653 0277041 232.5686 125.4585  0.91410050 28409

Отслеживайте TITAN 3C TRANSTAGE DEB в реальном времени с AllMySat

Download on the App Store